User: anonymous   Login
Location: Unspecified
(0.0000°N, 0.0000°E)
Time: 11:16:39
(UTC+00:00)
Language:

COSMOS 2409 - Orbit

View from above orbital plane
View from above orbital plane
View from above satellite
View from above satellite

Ground track
Ground track

The orbit data is extracted from the following two-line orbital elements,

1 28380U 04028A   18346.59296279 +.00000005 +00000-0 -10513-4 0  9996
2 28380 082.9589 306.0738 0039823 006.2896 353.8757 13.76059486722735
Epoch (UTC): 12 December 2018 14:13:51
Eccentricity: 0.0039823
inclination: 82.9589°
perigee height: 948 km
apogee height: 1007 km
right ascension of ascending node: 306.0738°
argument of perigee: 6.2896°
revolutions per day: 13.76059486
mean anomaly at epoch: 353.8757°
orbit number at epoch: 72273

The dashed part of the orbit path shows where the satellite is in the earth's shadow,  

DLR